Location: Izdebno
(52.6670°N, 16.2170°E)
Time: 19:03:21
(UTC+01:00)

Transit 2A - Pass Details

Date: 07 February 2023
Orbit: 591 x 964 km, 66.7° (Epoch: 21 March)

Event Time Altitude Azimuth Distance (km) Brightness Sun altitude
Rises 16:48:41 0° 220° (SW) 3,045 10.5 -0.4°
Reaches altitude 10° 16:50:54 10° 221° (SW) 2,184 9.7 -0.7°
Maximum altitude 16:55:54 83° 310° (NW) 780 6.2 -1.4°
Drops below altitude 10° 17:01:32 10° 39° (NE) 2,452 8.1 -2.2°
Sets 17:04:09 0° 40° (NE) 3,448 8.8 -2.6°
